Regional Weather Roundup
Issued by NWS

Home | Current Version | Previous Version | Graphics & Text | Print | Product List | Glossary Off
Versions: 1 2 3 4 5 6 7 8 9 10 11 12 13 14 15 16 17 18 19 20 21 22 23 24 25 26 27 28 29 30 31 32 33 34 35 36 37 38 39 40 41 42 43 44 45 46 47 48 49 50

762
ASUS43 KMKX 182300
RWRWI

WISCONSIN REGIONAL WEATHER ROUNDUP
NATIONAL WEATHER SERVICE MILWAUKEE/SULLIVAN WI
500 PM CST SAT NOV 18 2017

NOTE: "FAIR" INDICATES FEW OR NO CLOUDS BELOW 12,000 FEET WITH NO
SIGNIFICANT WEATHER AND/OR OBSTRUCTIONS TO VISIBILITY.

WIZ001-002-006>008-014>016-023>028-190000-
NORTHWEST WISCONSIN

CITY           SKY/WX    TMP DP  RH WIND       PRES   REMARKS
SUPERIOR ARPT  CLOUDY    27  15  62 NW15G21   29.90R WCI  15
ASHLAND        CLOUDY    28  18  66 NW12      29.85R WCI  18
HAYWARD        CLOUDY    27  16  63 VRB7      29.84R WCI  19
SIREN          CLOUDY    28  17  61 NW8G16    29.88R WCI  20
CUMBERLAND     PTCLDY    28  18  64 NW18      29.84R WCI  16
RICE LAKE      CLOUDY    30  19  62 NW12G17   29.85R WCI  21
CHETEK         CLOUDY    31  20  64 NW10G17   29.83R WCI  22
LADYSMITH      CLOUDY    31  22  67 NW16      29.80R WCI  20
EAU CLAIRE     NOT AVBL
MENOMONIE      CLOUDY    32  22  65 W15G22    29.84R WCI  22
NEW RICHMOND   CLEAR     29  17  60 NW17G25   29.88R WCI  18
OSCEOLA        CLEAR     30  18  61 NW10      29.92R WCI  21
$$

WIZ003>005-009-010-017-018-190000-
NORTH CENTRAL WISCONSIN

CITY           SKY/WX    TMP DP  RH WIND       PRES   REMARKS
MANITOWISH WTR CLOUDY    27  27 100 NW10      29.73R WCI  17
ARBOR VITAE    MOCLDY    29  27  89 NW9G17    29.72R WCI  21
WOODRUFF       MOCLDY    29  27  89 NW9G17    29.72R WCI  21
RHINELANDER    CLOUDY    29  25  85 NW13G22   29.71R WCI  19
EAGLE RIVER    CLOUDY    28  25  87 N16G26    29.70R WCI  16
LAND O LAKES   CLOUDY    28  26  90 NW9       29.72R WCI  19
PHILLIPS       CLOUDY    28  23  82 NW9G20    29.75R WCI  19
TOMAHAWK       CLOUDY    29  24  81 NW10G21   29.72R WCI  20
MEDFORD        CLOUDY    30  24  78 NW13G20   29.73R WCI  20
MERRILL        CLOUDY    31  26  80 N16       29.72R WCI  20
$$

WIZ029-030-035-036-043>047-190000-
CENTRAL WISCONSIN

CITY           SKY/WX    TMP DP  RH WIND       PRES   REMARKS
WAUSAU         CLOUDY    33  25  72 NW13G23   29.71R WCI  24
MOSINEE        CLOUDY    32  28  86 N9G16     29.72R WCI  24
MARSHFIELD     MOCLDY    33  25  72 NW12      29.72R WCI  24
STEVENS POINT  CLOUDY    33  26  73 NW14      29.71R WCI  24
WAUPACA        CLOUDY    39  29  67 NW12G17   29.69R WCI  31
WAUTOMA        CLOUDY    37  27  67 NW15G21   29.71R WCI  28
WISC RAPIDS    CLOUDY    36  27  69 NW15      29.74R WCI  27
CAMP DOUGLAS   CLEAR    N/A N/A N/A NW13      29.75R
$$

WIZ011>013-019>022-031-037>040-048>050-190000-
NORTHEAST WISCONSIN

CITY           SKY/WX    TMP DP  RH WIND       PRES   REMARKS
ANTIGO         CLOUDY    31  28  85 N15       29.68R WCI  21
SHAWANO        CLOUDY    38  28  69 N10       29.67S WCI  30
OCONTO         NOT AVBL
STURGEON BAY   CLOUDY    37  28  70 NW18G26   29.64R WCI  27
GREEN BAY      CLOUDY    37  30  75 N12       29.66R WCI  29
MANITOWOC      CLOUDY    37  30  75 N16       29.64R WCI  28
APPLETON       CLOUDY    36  25  64 N15G26    29.65R WCI  26
CLINTONVILLE   CLOUDY    37  27  65 N13G22    29.67R WCI  29
OSHKOSH        CLOUDY    37  27  67 N17G29    29.67R WCI  27
$$

WIZ032>034-041-042-053>061-190000-
SOUTHWEST WISCONSIN

CITY           SKY/WX    TMP DP  RH WIND       PRES   REMARKS
LA CROSSE      CLOUDY    39  27  62 NW21G31   29.80R WCI  29
SPARTA         MOCLDY    37  29  72 NW13G18   29.77R WCI  29
VIROQUA        CLEAR     35  29  80 NW14      29.75R WCI  26
BOSCOBEL       CLEAR     40  28  62 NW7       29.77R
PRAIRIE DU CHI CLEAR     40  27  60 NW7G23    29.78R
PLATTEVILLE    CLEAR     38  33  80 NW10      29.73R WCI  32
$$

WIZ056-057-062-063-064-067-068-190000-
SOUTH CENTRAL WISCONSIN

CITY           SKY/WX    TMP DP  RH WIND       PRES   REMARKS
REEDSBURG      MOCLDY    38  29  71 NW14G23   29.71R WCI  29
BARABOO/DELLS  PTCLDY    36  28  75 NW6       29.71R WCI  31
LONE ROCK      NOT AVBL
MINERAL POINT  CLEAR     37  34  87 NW8       29.71R WCI  31
MADISON        PTCLDY    36  30  79 NW8       29.69R WCI  30
MIDDLETON      CLEAR     37  32  80 NW14      29.69R WCI  29
WATERTOWN      CLOUDY    37  33  85 NW13G18   29.65R WCI  29
MONROE         PTCLDY    36  32  87 NW12      29.68R WCI  27
JANESVILLE     CLOUDY    39  34  81 NW16G24   29.67R WCI  30
$$

WIZ051-052-058>065-066-070>072-190000-
SOUTHEAST WISCONSIN

CITY           SKY/WX    TMP DP  RH WIND       PRES   REMARKS
MILWAUKEE      CLOUDY    40  32  73 N20G30    29.63R WCI  30
WAUKESHA       CLOUDY    36  28  75 NW14G24   29.65R WCI  27
MILWAUKEE/TIMM CLOUDY    37  28  70 N16G26    29.64R WCI  28
RACINE         CLOUDY    39  32  76 N16G26    29.63R WCI  30
BURLINGTON     CLOUDY    40  36  86 N14G24    29.63R WCI  32
KENOSHA        CLOUDY    39  32  76 NW13G21   29.63R WCI  31
FOND DU LAC    CLOUDY    37  28  70 N12G22    29.67R WCI  29
SHEBOYGAN      CLOUDY    37  31  78 N16G24    29.63R WCI  28
WEST BEND      CLOUDY    36  32  87 N14G21    29.63R WCI  27
JUNEAU         CLOUDY    36  30  79 NW8G16    29.67R WCI  30
$$

LSZ147-162-190000-
LAKE SUPERIOR

STATION/POSITION TIME  TEMP    WIND        PRES    WAVE
                       AIR SEA DIR/SP/G            HT/PER
                 (UTC) (F)     (DEG/KT/KT) (MB)    (FT/S)
DEVILS ISLAND    2200   29     310/ 18/ 20 1010.5R
SAXON HARBOR     2230   32     340/ 18/ 20 1009.1R
$$

LMZ867-665-643>646-190000-
LAKE MICHIGAN

STATION/POSITION TIME  TEMP    WIND        PRES    WAVE
                       AIR SEA DIR/SP/G            HT/PER
                 (UTC) (F)     (DEG/KT/KT) (MB)    (FT/S)
N MID LAKE BUOY  2150   41 48  340/ 23/ 27 1001.4R   4/ 4
NORTHPORT PIER   2240   40     340/ 24/ 32 1002.7R
SHEBOYGAN LAKESH 2200   39     330/ 20/ 24 1002.6R
PORT WASHINGTON  2240   39     340/ 11/ 19 1004.7R
MILWAUKEE LAKESH 2230   39     340/ 16/ 19   N/A
S MID LAKE BUOY  2150   42 49  360/ 29/ 35  999.5R  10/ 8
KENOSHA   LAKESH 2200   40     340/ 22/ 26 1002.0
$$

TC  - TEMPERATURE IN CELSIUS
VSB - VISIBILITY IN STATUTE MILES
WCI - WIND CHILL INDEX
HX  - HEAT INDEX





USA.gov is the U.S. government's official web portal to all federal, state and local government web resources and services.